Hourly Weather Barlinek

Today, 8 May, Saturday

Time Temperature Precipitation Wind Pressure Humidity
00:00 0°C° 0 mm 4 mps 754 mmHg 94%
01:00 0°C° 0 mm 4 mps 755 mmHg 94%
02:00 0°C° 0 mm 4 mps 755 mmHg 95%
03:00 -1°C° 0 mm 4 mps 755 mmHg 95%
04:00 0°C° 0 mm 3 mps 755 mmHg 96%
05:00 0°C° 0 mm 4 mps 756 mmHg 93%
06:00 +1°C° 0 mm 4 mps 756 mmHg 90%
07:00 +3°C° 0 mm 5 mps 756 mmHg 87%
08:00 +5°C° 0 mm 5 mps 756 mmHg 77%
09:00 +7°C° 0 mm 5 mps 756 mmHg 67%
10:00 +9°C° 0 mm 5 mps 757 mmHg 56%
11:00 +9°C° 0 mm 5 mps 757 mmHg 52%
12:00 +10°C° 0 mm 5 mps 756 mmHg 48%
13:00 +12°C° 0 mm 5 mps 756 mmHg 44%
14:00 +12°C° 0 mm 4 mps 756 mmHg 44%
15:00 +12°C° 0 mm 4 mps 756 mmHg 44%
16:00 +12°C° 0 mm 3 mps 756 mmHg 43%
17:00 +12°C° 0 mm 2 mps 756 mmHg 49%
18:00 +10°C° 0 mm 2 mps 756 mmHg 55%
19:00 +10°C° 0 mm 1 mps 756 mmHg 60%
20:00 +8°C° 0 mm 2 mps 756 mmHg 60%
21:00 +8°C° 0 mm 2 mps 756 mmHg 59%
22:00 +7°C° 0 mm 3 mps 756 mmHg 58%
23:00 +7°C° 0 mm 3 mps 755 mmHg 59%

Tomorrow, 9 May, Sunday

Time Temperature Precipitation Wind Pressure Humidity
00:00 +7°C° 0 mm 3 mps 755 mmHg 60%
01:00 +6°C° 0 mm 4 mps 755 mmHg 61%
02:00 +6°C° 0 mm 4 mps 754 mmHg 62%
03:00 +7°C° 0 mm 5 mps 754 mmHg 63%
04:00 +7°C° 0 mm 5 mps 753 mmHg 64%
05:00 +8°C° 0 mm 5 mps 753 mmHg 64%
06:00 +8°C° 0 mm 5 mps 753 mmHg 65%
07:00 +10°C° 0 mm 4 mps 753 mmHg 65%
08:00 +12°C° 0 mm 5 mps 753 mmHg 62%
09:00 +14°C° 0 mm 5 mps 753 mmHg 59%
10:00 +17°C° 0 mm 5 mps 753 mmHg 56%
11:00 +19°C° 0 mm 5 mps 753 mmHg 53%
12:00 +21°C° 0 mm 5 mps 752 mmHg 50%
13:00 +22°C° 0 mm 5 mps 752 mmHg 48%
14:00 +22°C° 0 mm 5 mps 752 mmHg 49%
15:00 +22°C° 0 mm 5 mps 752 mmHg 50%
16:00 +23°C° 0 mm 4 mps 751 mmHg 52%
17:00 +21°C° 0 mm 4 mps 751 mmHg 58%
18:00 +19°C° 0 mm 4 mps 751 mmHg 65%
19:00 +17°C° 0 mm 3 mps 751 mmHg 71%
20:00 +16°C° 0 mm 3 mps 751 mmHg 76%
21:00 +14°C° 0 mm 3 mps 751 mmHg 81%
22:00 +13°C° 0 mm 3 mps 752 mmHg 86%
23:00 +13°C° 0 mm 3 mps 752 mmHg 87%

Day after tomorrow, 10 May, Monday

Time Temperature Precipitation Wind Pressure Humidity
00:00 +12°C° 0 mm 3 mps 751 mmHg 88%
01:00 +11°C° 0 mm 3 mps 751 mmHg 89%
02:00 +10°C° 0 mm 3 mps 751 mmHg 88%
03:00 +10°C° 0 mm 3 mps 751 mmHg 88%
04:00 +8°C° 0 mm 4 mps 751 mmHg 87%
05:00 +11°C° 0 mm 4 mps 751 mmHg 81%
06:00 +12°C° 0 mm 5 mps 751 mmHg 75%
07:00 +13°C° 0 mm 5 mps 751 mmHg 68%
08:00 +15°C° 0 mm 6 mps 750 mmHg 64%
09:00 +17°C° 0 mm 6 mps 750 mmHg 59%
10:00 +18°C° 0 mm 7 mps 750 mmHg 54%
11:00 +20°C° 0 mm 7 mps 750 mmHg 53%
12:00 +21°C° 0 mm 6 mps 750 mmHg 52%
13:00 +22°C° 0 mm 6 mps 750 mmHg 51%
14:00 +23°C° 0 mm 5 mps 750 mmHg 52%
15:00 +25°C° 0 mm 4 mps 750 mmHg 52%
16:00 +25°C° 0 mm 4 mps 750 mmHg 52%
17:00 +24°C° 0 mm 3 mps 750 mmHg 58%
18:00 +23°C° 0 mm 2 mps 750 mmHg 63%
19:00 +21°C° 0 mm 1 mps 750 mmHg 69%
20:00 +19°C° 0 mm 2 mps 751 mmHg 75%
21:00 +18°C° 0 mm 2 mps 751 mmHg 81%
22:00 +16°C° 0 mm 2 mps 751 mmHg 87%
23:00 +16°C° 0 mm 2 mps 751 mmHg 89%

11 May, Tuesday

Time Temperature Precipitation Wind Pressure Humidity
00:00 +15°C° 0 mm 2 mps 750 mmHg 91%
01:00 +14°C° 0 mm 2 mps 750 mmHg 93%
02:00 +14°C° 0 mm 2 mps 750 mmHg 94%
03:00 +14°C° 0 mm 2 mps 750 mmHg 95%
04:00 +13°C° 0 mm 2 mps 750 mmHg 95%
05:00 +14°C° 0 mm 3 mps 749 mmHg 90%
06:00 +16°C° 0 mm 3 mps 749 mmHg 84%
07:00 +17°C° 0 mm 4 mps 749 mmHg 79%
08:00 +19°C° 0 mm 4 mps 749 mmHg 74%
09:00 +20°C° 0 mm 4 mps 748 mmHg 69%
10:00 +22°C° 0 mm 3 mps 748 mmHg 63%
11:00 +24°C° 0 mm 3 mps 748 mmHg 60%
12:00 +25°C° 0 mm 3 mps 748 mmHg 57%
13:00 +26°C° 0 mm 3 mps 748 mmHg 54%
14:00 +25°C° 0 mm 3 mps 748 mmHg 57%
15:00 +25°C° 0 mm 3 mps 747 mmHg 61%
16:00 +24°C° 0 mm 3 mps 747 mmHg 64%
17:00 +22°C° 0 mm 3 mps 748 mmHg 71%
18:00 +20°C° 0 mm 2 mps 748 mmHg 78%
19:00 +19°C° 0 mm 2 mps 748 mmHg 85%
20:00 +18°C° 0 mm 2 mps 748 mmHg 86%
21:00 +18°C° 0 mm 2 mps 748 mmHg 87%
22:00 +17°C° 0 mm 2 mps 748 mmHg 88%
23:00 +16°C° 0 mm 2 mps 748 mmHg 90%

12 May, Wednesday

Time Temperature Precipitation Wind Pressure Humidity
00:00 +16°C° 0 mm 2 mps 748 mmHg 92%
01:00 +15°C° 0 mm 2 mps 747 mmHg 94%
02:00 +15°C° 0 mm 2 mps 747 mmHg 95%
03:00 +15°C° 0 mm 2 mps 747 mmHg 95%
04:00 +13°C° 0 mm 3 mps 747 mmHg 96%
05:00 +14°C° 0 mm 3 mps 747 mmHg 91%
06:00 +17°C° 0 mm 3 mps 747 mmHg 86%
07:00 +18°C° 0 mm 4 mps 747 mmHg 81%
08:00 +19°C° 0 mm 4 mps 747 mmHg 75%
09:00 +21°C° 0 mm 4 mps 747 mmHg 70%
10:00 +23°C° 0 mm 4 mps 747 mmHg 64%
11:00 +22°C° 0.1 mm 4 mps 748 mmHg 68%
12:00 +21°C° 0.1 mm 4 mps 748 mmHg 71%
13:00 +21°C° 0.1 mm 5 mps 748 mmHg 74%
14:00 +19°C° 0.1 mm 4 mps 748 mmHg 77%
15:00 +18°C° 0.1 mm 4 mps 748 mmHg 79%
16:00 +17°C° 0.1 mm 4 mps 749 mmHg 82%
17:00 +15°C° 0.4 mm 4 mps 749 mmHg 86%
18:00 +14°C° 0.4 mm 4 mps 749 mmHg 90%
19:00 +13°C° 0.4 mm 4 mps 749 mmHg 94%
20:00 +13°C° 0.5 mm 4 mps 749 mmHg 95%
21:00 +12°C° 0.5 mm 4 mps 749 mmHg 95%
22:00 +12°C° 0.5 mm 4 mps 750 mmHg 96%
23:00 +12°C° 0.1 mm 4 mps 749 mmHg 96%

13 May, Thursday

Time Temperature Precipitation Wind Pressure Humidity
00:00 +12°C° 0.1 mm 4 mps 749 mmHg 96%
01:00 +12°C° 0.1 mm 4 mps 749 mmHg 96%
02:00 +11°C° 0 mm 3 mps 749 mmHg 96%
03:00 +11°C° 0 mm 3 mps 749 mmHg 96%
04:00 +10°C° 0 mm 3 mps 749 mmHg 97%
05:00 +11°C° 0 mm 3 mps 749 mmHg 92%
06:00 +11°C° 0 mm 4 mps 749 mmHg 87%
07:00 +12°C° 0 mm 4 mps 749 mmHg 83%
08:00 +13°C° 0 mm 4 mps 749 mmHg 75%
09:00 +15°C° 0 mm 4 mps 749 mmHg 68%
10:00 +17°C° 0 mm 4 mps 749 mmHg 61%
11:00 +18°C° 0 mm 3 mps 749 mmHg 56%
12:00 +19°C° 0 mm 3 mps 749 mmHg 52%
13:00 +20°C° 0 mm 3 mps 749 mmHg 47%
14:00 +20°C° 0 mm 3 mps 749 mmHg 49%
15:00 +19°C° 0 mm 2 mps 748 mmHg 51%
16:00 +19°C° 0 mm 2 mps 748 mmHg 53%
17:00 +18°C° 0 mm 2 mps 748 mmHg 60%
18:00 +16°C° 0 mm 2 mps 748 mmHg 67%
19:00 +15°C° 0 mm 1 mps 749 mmHg 74%
20:00 +14°C° 0 mm 2 mps 748 mmHg 74%
21:00 +14°C° 0 mm 2 mps 748 mmHg 75%
22:00 +14°C° 0 mm 2 mps 748 mmHg 75%
23:00 +14°C° 0 mm 2 mps 748 mmHg 77%
Show more